This is the latest recevied weather packets stored in our database for station/object W2TAO. If no packets are shown the sender has not sent any weather packets the latest 10 day(s).
| Time | Temp. | Humidity | Pressure | Rain* | Wind** | Luminosity | Snow |
|---|---|---|---|---|---|---|---|
| 1778153624 | 6.11° C | 83% | 1012.7 hPa | 0 mm | - | 41 W/m² | - |
| 1778153321 | 6.67° C | 85% | 1012.6 hPa | 0 mm | - | 42 W/m² | - |
| 1778153018 | 5.56° C | 88% | 1012.6 hPa | 0 mm | - | 79 W/m² | - |
| 1778152716 | 5.56° C | 93% | 1012.7 hPa | 0 mm | - | 47 W/m² | - |
| 1778152413 | 5.56° C | 93% | 1012.6 hPa | 0 mm | - | 39 W/m² | - |
| 1778152108 | 5.56° C | 96% | 1012.1 hPa | 0 mm | - | 36 W/m² | - |
| 1778151805 | 5.56° C | 97% | 1012.2 hPa | 0 mm | - | 34 W/m² | - |
| 1778151502 | 5° C | 97% | 1012.3 hPa | 0 mm | - | 33 W/m² | - |
| 1778151198 | 5° C | 97% | 1012.3 hPa | 0 mm | - | 31 W/m² | - |
| 1778150895 | 5.56° C | 98% | 1012.2 hPa | 0 mm | - | 31 W/m² | - |
| 1778150592 | 5° C | 98% | 1012.3 hPa | 0 mm | - | 28 W/m² | - |
| 1778150288 | 5° C | 98% | 1012 hPa | 0 mm | - | 25 W/m² | - |
| 1778149984 | 5.56° C | 97% | 1011.9 hPa | 0 mm | - | 27 W/m² | - |
| 1778149681 | 5.56° C | 97% | 1011.9 hPa | 0 mm | - | 23 W/m² | - |
| 1778149378 | 5.56° C | 97% | 1011.9 hPa | 0 mm | - | 20 W/m² | - |
| 1778149074 | 5.56° C | 97% | 1011.7 hPa | 0 mm | - | 16 W/m² | - |
| 1778148774 | 5.56° C | 98% | 1011.7 hPa | 0 mm | - | 12 W/m² | - |
| 1778148471 | 5.56° C | 98% | 1011.8 hPa | 0 mm | - | 10 W/m² | - |
| 1778148169 | 5.56° C | 99% | 1011.7 hPa | 0 mm | - | 5 W/m² | - |
| 1778147867 | 5.56° C | 99% | 1011.8 hPa | 0 mm | - | 2 W/m² | - |
| 1778147563 | 5.56° C | 99% | 1011.6 hPa | 0 mm | - | 2 W/m² | - |
| 1778147260 | 5.56° C | 99% | 1011.4 hPa | 0 mm | - | 2 W/m² | - |
| 1778146957 | 5.56° C | 99% | 1011.3 hPa | 0 mm | - | 1 W/m² | - |
| 1778146654 | 5.56° C | 99% | 1011.3 hPa | 0 mm | - | 0 W/m² | - |
| 1778146353 | 5.56° C | 99% | 1011.1 hPa | 0 mm | - | 0 W/m² | - |
* Rain latest hour (hover to see other rain measurements)
** Current wind speed in m/s (hover to see current wind gust speed)